User: anonymous   Login
Location: Unspecified
(0.0000°N, 0.0000°E)
Time: 19:29:33
(UTC+00:00)
Language:

STARLINK-3620 - Orbit

View from above orbital plane
View from above orbital plane
View from above satellite
View from above satellite

Ground track
Ground track

The orbit is defined by the following mean orbital elements,

1 51775U          26145.66668980 +.00000000 +00000-0 +26447-2 0 00000
2 51775  53.2183 348.4291 0001499  86.8605 157.2128 15.41814615    08
Epoch (UTC): 25 May 2026 16:00:01
Eccentricity: 0.0001499
inclination: 53.2183°
perigee height: 440 km
apogee height: 442 km
right ascension of ascending node: 348.4291°
argument of perigee: 86.8605°
revolutions per day: 15.41814615
mean anomaly at epoch: 157.2128°

The dashed part of the orbit path shows where the satellite is in the earth's shadow,  

DLR